EW7096 Annapolis MD US current weather conditions

sailwx.info

Wind from 086

Air temperature 29.4° C
Dewpoint 25.8° C

Last reported at 2020-Aug-12 00:10 UTC.
Time now 2020-Aug-12 01:01 UTC

Location: N 39°03' W 076°27'.
View on Google Maps.

See reports from other nearby stations

  
Tides and Currents Weather Stations Pressure Air Temp Water Temp Dewpoint Dewpoint Depression Visibility Wind Speed Wind Dir Waves Ship Positions
date/time (UTC)wind fromknots sea level pressurealtimeterstation pressurevisibilityair tempwater tempwave heightnotes
2020-Aug-12 00:10 086 29.4
2020-Aug-12 00:00 085 29.4
2020-Aug-11 23:50 086 29.4
2020-Aug-11 23:40 137 1 gusting 3 30.0
2020-Aug-11 23:30 115 1 gusting 3 30.0
2020-Aug-11 23:20 124 1 gusting 1 30.0
2020-Aug-11 23:10 104 1 gusting 1 30.0
2020-Aug-11 23:00 128 1 gusting 1 30.0
2020-Aug-11 22:50 134 1 gusting 1 30.6
2020-Aug-11 22:40 135 30.6
2020-Aug-11 22:30 141 1 gusting 1 31.1
2020-Aug-11 22:20 231 1 gusting 1 31.1
2020-Aug-11 22:10 205 1 gusting 1 31.1
2020-Aug-11 22:00 143 1 gusting 4 31.1
2020-Aug-11 21:50 164 1 gusting 4 31.1
2020-Aug-11 21:40 145 2 gusting 5 31.1
2020-Aug-11 21:30 143 1 gusting 3 31.1
2020-Aug-11 21:20 148 1 gusting 4 31.1
2020-Aug-11 21:10 234 1 gusting 3 31.1
2020-Aug-11 21:00 162 2 gusting 5 31.1
2020-Aug-11 20:50 149 1 gusting 4 31.1
2020-Aug-11 20:40 124 1 gusting 4 31.1
2020-Aug-11 20:30 156 1 gusting 3 31.1
2020-Aug-11 20:20 198 1 gusting 4 30.6
2020-Aug-11 20:10 160 1 gusting 5 30.6
2020-Aug-11 20:00 132 2 gusting 4 30.6
2020-Aug-11 19:50 138 1 gusting 4 30.6
2020-Aug-11 19:40 151 1 gusting 3 30.6
2020-Aug-11 19:30 157 1 gusting 4 31.1
2020-Aug-11 19:20 152 1 gusting 4 31.1
2020-Aug-11 19:10 093 1 gusting 3 31.1
2020-Aug-11 19:00 138 1 gusting 4 31.1
2020-Aug-11 18:50 160 1 gusting 4 31.1
2020-Aug-11 18:40 157 1 gusting 3 31.7
2020-Aug-11 18:30 130 2 gusting 4 31.7
2020-Aug-11 18:20 147 2 gusting 4 31.7
2020-Aug-11 18:10 130 1 gusting 3 31.7
2020-Aug-11 18:00 149 1 gusting 4 31.7
2020-Aug-11 17:50 237 1 gusting 3 31.7
2020-Aug-11 17:40 151 1 gusting 5 31.1
2020-Aug-11 17:30 158 1 gusting 5 31.1
2020-Aug-11 17:20 217 1 gusting 4 31.1
2020-Aug-11 17:10 149 1 gusting 5 30.6
2020-Aug-11 17:00 119 2 gusting 3 30.6
2020-Aug-11 16:50 123 1 gusting 5 30.6
2020-Aug-11 16:40 189 1 gusting 3 30.6
2020-Aug-11 16:30 181 1 gusting 4 30.0
2020-Aug-11 16:20 235 1 gusting 4 30.0
2020-Aug-11 16:10 174 1 gusting 4 30.0
2020-Aug-11 16:00 148 1 gusting 4 30.0
2020-Aug-11 15:50 122 1 gusting 5 29.4
2020-Aug-11 15:40 159 1 gusting 5 28.9
2020-Aug-11 15:30 153 1 gusting 4 28.3
2020-Aug-11 15:20 138 1 gusting 3 28.3
2020-Aug-11 15:10 207 1 gusting 3 27.8
2020-Aug-11 15:00 154 1 gusting 3 27.8
2020-Aug-11 14:50 150 1 gusting 3 27.8
2020-Aug-11 14:40 177 1 gusting 3 27.8
2020-Aug-11 14:30 130 1 gusting 4 27.8
2020-Aug-11 14:20 122 1 gusting 4 27.8
2020-Aug-11 14:10 192 1 gusting 4 27.2
2020-Aug-11 14:00 108 1 gusting 3 27.2
2020-Aug-11 13:50 119 1 gusting 3 26.7
2020-Aug-11 13:40 143 1 gusting 3 26.7
2020-Aug-11 13:30 192 1 gusting 1 26.7
2020-Aug-11 13:20 231 1 gusting 3 26.1
2020-Aug-11 13:10 183 1 gusting 1 26.1
2020-Aug-11 13:00 181 1 gusting 4 25.6
2020-Aug-11 12:50 159 25.6
2020-Aug-11 12:40 181 1 gusting 1 25.6
2020-Aug-11 12:30 218 1 gusting 1 25.0
2020-Aug-11 12:20 244 1 gusting 4 25.0
2020-Aug-11 12:10 248 25.0
2020-Aug-11 12:00 248 24.4
2020-Aug-11 11:50 248 1 gusting 1 24.4
2020-Aug-11 11:40 248 24.4
2020-Aug-11 11:30 248 24.4
2020-Aug-11 11:20 248 24.4
2020-Aug-11 11:10 248 24.4
2020-Aug-11 11:00 24.4
2020-Aug-11 10:50 248 24.4
2020-Aug-11 10:40 248 24.4
2020-Aug-11 10:30 248 24.4
2020-Aug-11 10:20 248 24.4
2020-Aug-11 10:10 248 24.4
2020-Aug-11 10:00 248 25.0
2020-Aug-11 09:50 248 25.0
2020-Aug-11 09:40 248 25.0
2020-Aug-11 09:30 248 1 gusting 3 25.0
2020-Aug-11 09:20 248 25.0
2020-Aug-11 09:10 25.0
2020-Aug-11 09:00 25.0
2020-Aug-11 08:50 248 25.0
2020-Aug-11 08:40 248 25.0
2020-Aug-11 08:30 248 25.0
2020-Aug-11 08:20 248 25.0
2020-Aug-11 08:10 25.6
2020-Aug-11 08:00 25.6
2020-Aug-11 07:50 248 25.6
2020-Aug-11 07:40 25.6
2020-Aug-11 07:30 248 25.6
2020-Aug-11 07:20 248 25.6
2020-Aug-11 07:10 248 25.6
2020-Aug-11 07:00 248 25.6
2020-Aug-11 06:50 248 25.6
2020-Aug-11 06:40 25.6
2020-Aug-11 06:30 248 25.6
2020-Aug-11 06:20 248 25.6
2020-Aug-11 06:10 25.6
2020-Aug-11 06:00 248 25.6
2020-Aug-11 05:50 248 25.6
2020-Aug-11 05:40 25.6
2020-Aug-11 05:30 248 25.6
2020-Aug-11 05:20 26.1
2020-Aug-11 05:10 248 26.1
2020-Aug-11 05:00 248 26.1
2020-Aug-11 04:50 248 26.1
2020-Aug-11 04:40 248 26.1
2020-Aug-11 04:30 248 26.7
2020-Aug-11 04:20 248 26.7
2020-Aug-11 04:10 248 26.7
2020-Aug-11 04:00 248 1 gusting 3 26.7
2020-Aug-11 03:50 212 26.7
2020-Aug-11 03:40 210 26.7
2020-Aug-11 03:30 210 26.7
2020-Aug-11 03:20 210 27.2
2020-Aug-11 03:10 210 27.2
2020-Aug-11 03:00 210 27.2
2020-Aug-11 02:50 210 27.2
2020-Aug-11 02:40 210 27.2
2020-Aug-11 02:30 210 27.2
2020-Aug-11 02:20 209 1 gusting 1 27.8
2020-Aug-11 02:10 260 1 gusting 1 27.8
2020-Aug-11 02:00 154 1 gusting 1 27.8
2020-Aug-11 01:50 172 1 gusting 1 27.8
2020-Aug-11 01:40 235 1 gusting 1 27.8
2020-Aug-11 01:30 178 1 gusting 1 27.8
2020-Aug-11 01:20 177 1 gusting 1 27.8
2020-Aug-11 01:10 179 1 gusting 3 28.3
2020-Aug-11 01:00 185 1 gusting 1 28.3
2020-Aug-11 00:50 170 1 gusting 4 28.3
2020-Aug-11 00:40 142 28.9
2020-Aug-11 00:30 128 1 gusting 1 28.9
2020-Aug-11 00:20 126 28.9
2020-Aug-11 00:10 126 28.9
2020-Aug-11 00:00 126 29.4
2020-Aug-10 23:50 126 1 gusting 1 29.4
2020-Aug-10 23:40 127 30.0
2020-Aug-10 23:30 126 30.0
2020-Aug-10 23:20 126 30.0
2020-Aug-10 23:10 125 30.6
2020-Aug-10 23:00 122 1 gusting 1 30.6
2020-Aug-10 22:50 167 1 gusting 3 31.1
2020-Aug-10 22:40 169 1 gusting 3 31.1
2020-Aug-10 22:30 168 1 gusting 1 31.7
2020-Aug-10 22:20 161 1 gusting 1 31.7
2020-Aug-10 22:10 139 1 gusting 1 31.7
2020-Aug-10 22:00 147 1 gusting 3 31.7
2020-Aug-10 21:50 145 1 gusting 3 31.7
2020-Aug-10 21:40 157 1 gusting 3 31.7
2020-Aug-10 21:30 156 1 gusting 1 31.7
2020-Aug-10 21:20 158 1 gusting 1 31.7
2020-Aug-10 21:10 155 1 gusting 3 31.7
2020-Aug-10 21:00 171 1 gusting 1 31.7
2020-Aug-10 20:50 294 1 gusting 1 31.7
2020-Aug-10 20:40 151 1 gusting 1 31.7
2020-Aug-10 20:30 123 1 gusting 4 31.7
2020-Aug-10 20:20 109 1 gusting 4 31.7
2020-Aug-10 20:10 137 1 gusting 3 31.1
2020-Aug-10 20:00 172 1 gusting 3 31.1
2020-Aug-10 19:50 209 1 gusting 1 31.7
2020-Aug-10 19:40 219 1 gusting 1 31.1
2020-Aug-10 19:30 300 1 gusting 1 31.7
2020-Aug-10 19:20 112 1 gusting 3 31.7
2020-Aug-10 19:10 091 1 gusting 3 31.7
2020-Aug-10 19:00 113 1 gusting 3 31.7
2020-Aug-10 18:50 122 1 gusting 3 32.2
2020-Aug-10 18:40 198 1 gusting 4 32.2
2020-Aug-10 18:30 152 1 gusting 3 32.8
2020-Aug-10 18:20 120 1 gusting 3 32.8
2020-Aug-10 18:10 181 1 gusting 3 32.8
2020-Aug-10 18:00 171 1 gusting 3 32.8
2020-Aug-10 17:50 338 1 gusting 1 32.2
2020-Aug-10 17:40 179 1 gusting 1 32.2
2020-Aug-10 17:30 210 1 gusting 1 31.7
2020-Aug-10 17:20 142 1 gusting 1 31.7
2020-Aug-10 17:10 123 1 gusting 3 31.1
2020-Aug-10 17:00 132 1 gusting 4 31.1
2020-Aug-10 16:50 035 1 gusting 4 31.1
2020-Aug-10 16:40 054 2 gusting 5 30.6
2020-Aug-10 16:30 052 2 gusting 5 30.6
2020-Aug-10 16:20 057 2 gusting 5 30.6
2020-Aug-10 16:10 051 2 gusting 6 31.1
2020-Aug-10 16:00 056 2 gusting 5 30.6
2020-Aug-10 15:50 050 2 gusting 5 30.0
2020-Aug-10 15:40 040 2 gusting 6 29.4
2020-Aug-10 15:30 037 4 gusting 6 28.9
2020-Aug-10 15:20 044 4 gusting 5 28.3
2020-Aug-10 15:10 036 2 gusting 4 28.3
2020-Aug-10 15:00 045 2 gusting 5 28.3
2020-Aug-10 14:50 039 2 gusting 5 27.8
2020-Aug-10 14:40 040 4 gusting 5 27.8
2020-Aug-10 14:30 058 4 gusting 5 27.8
2020-Aug-10 14:20 058 4 gusting 5 27.2
2020-Aug-10 14:10 033 1 gusting 4 27.2
2020-Aug-10 14:00 302 1 gusting 3 26.7
2020-Aug-10 13:50 288 1 gusting 3 26.7
2020-Aug-10 13:40 232 1 gusting 4 26.1
2020-Aug-10 13:30 269 1 gusting 3 26.1
2020-Aug-10 13:20 234 1 gusting 4 25.6
2020-Aug-10 13:10 236 2 gusting 4 25.6
2020-Aug-10 13:00 245 2 gusting 4 25.0
2020-Aug-10 12:50 249 1 gusting 5 25.0
2020-Aug-10 12:40 235 1 gusting 3 25.0
2020-Aug-10 12:30 236 2 gusting 4 24.4
2020-Aug-10 12:20 240 1 gusting 4 24.4
2020-Aug-10 12:10 257 2 gusting 4 24.4
2020-Aug-10 12:00 223 1 gusting 1 23.9
2020-Aug-10 11:50 223 23.9
2020-Aug-10 11:40 223 23.9
2020-Aug-10 11:30 23.9
2020-Aug-10 11:20 223 23.3
2020-Aug-10 11:10 223 23.3
2020-Aug-10 11:00 222 23.3
2020-Aug-10 10:50 23.3
2020-Aug-10 10:40 205 23.3
2020-Aug-10 10:30 205 23.3
2020-Aug-10 10:20 218 23.3
2020-Aug-10 10:10 237 23.9
2020-Aug-10 10:00 237 1 gusting 1 23.9
2020-Aug-10 09:50 237 1 gusting 1 23.9
2020-Aug-10 09:40 237 1 gusting 1 23.9
2020-Aug-10 09:30 237 23.9
2020-Aug-10 09:20 237 1 gusting 0 23.9
2020-Aug-10 09:10 237 23.9
2020-Aug-10 09:00 237 23.9
2020-Aug-10 08:50 237 23.9
2020-Aug-10 08:40 240 1 gusting 3 23.9
2020-Aug-10 08:30 237 24.4
2020-Aug-10 08:20 236 24.4
2020-Aug-10 08:10 236 24.4
2020-Aug-10 08:00 236 24.4
2020-Aug-10 07:50 236 24.4
2020-Aug-10 07:40 24.4
2020-Aug-10 07:30 236 24.4
2020-Aug-10 07:20 236 24.4
2020-Aug-10 07:10 236 25.0
2020-Aug-10 07:00 236 25.0
2020-Aug-10 06:50 236 25.0
2020-Aug-10 06:40 236 1 gusting 1 25.0
2020-Aug-10 06:30 236 25.0
2020-Aug-10 06:20 233 25.0
2020-Aug-10 06:10 214 25.0
2020-Aug-10 06:00 231 1 gusting 4 25.6
2020-Aug-10 05:50 223 25.6
2020-Aug-10 05:40 228 25.6
2020-Aug-10 05:30 254 25.6
2020-Aug-10 05:20 254 25.6
2020-Aug-10 05:10 254 25.6
2020-Aug-10 05:00 241 25.6
2020-Aug-10 04:50 272 25.6
2020-Aug-10 04:40 224 26.1
2020-Aug-10 04:30 26.1
2020-Aug-10 04:20 26.1
2020-Aug-10 04:10 26.1
2020-Aug-10 04:00 26.1
2020-Aug-10 03:50 26.1
2020-Aug-10 03:40 26.1
2020-Aug-10 03:30 26.7
2020-Aug-10 03:20 26.7
2020-Aug-10 03:10 26.7
2020-Aug-10 03:00 26.7
2020-Aug-10 02:50 26.7
2020-Aug-10 02:40 26.7
2020-Aug-10 02:30 26.7
2020-Aug-10 02:20 26.7
2020-Aug-10 02:10 26.7
2020-Aug-10 02:00 26.7
2020-Aug-10 01:50 27.2
2020-Aug-10 01:40 27.2
2020-Aug-10 01:30 27.2
2020-Aug-10 01:20 27.2
2020-Aug-10 01:10 181 27.2
2020-Aug-10 01:00 181 27.2